YO8RBY-13 Weather Reports


time (UTC)temp
F
wind
direction
speed
knots
gust
knots
rain 1hr
in
rain 24hr
in
rain mn
in
humidity
%
barometer
mb
20260503230351 48 0.0 0.0 0.00 0.00 0.00 10 975.4
20260503225351 48 0.0 0.0 0.00 0.00 0.00 10 975.6
20260503224351 49 0.0 0.0 0.00 0.00 0.00 10 975.7
20260503223351 48 0.0 0.0 0.00 0.00 0.00 10 975.8
20260503222351 48 0.0 0.0 0.00 0.00 0.00 10 975.8
20260503221351 47 0.0 0.0 0.00 0.00 0.00 10 975.8
20260503220351 48 0.0 0.0 0.00 0.00 0.00 10 975.8
20260503215407 49 0.0 0.0 0.00 0.00 0.00 10 975.9
20260503214411 49 0.0 0.0 0.00 0.00 0.00 10 976.0
20260503213352 49 0.0 0.0 0.00 0.00 0.00 10 975.9
20260503212406 50 0.0 0.0 0.00 0.00 0.00 10 976.0
20260503211351 49 0.0 0.0 0.00 0.00 0.00 10 976.0
20260503210352 48 0.0 0.0 0.00 0.00 0.00 10 976.1
20260503205353 49 0.0 0.0 0.00 0.00 0.00 10 976.2
20260503204351 49 0.0 0.0 0.00 0.00 0.00 10 976.3
20260503203351 48 0.0 0.0 0.00 0.00 0.00 10 976.2
20260503202351 46 0.0 0.0 0.00 0.00 0.00 10 976.3
20260503201351 47 0.0 0.0 0.00 0.00 0.00 10 976.3
20260503200351 48 0.0 0.0 0.00 0.00 0.00 10 976.3
20260503195351 49 0.0 0.0 0.00 0.00 0.00 10 976.4
20260503194352 49 0.0 0.0 0.00 0.00 0.00 10 976.3
20260503193351 49 0.0 0.0 0.00 0.00 0.00 10 976.5
20260503192354 50 0.0 0.0 0.00 0.00 0.00 10 976.6
20260503191351 50 0.0 0.0 0.00 0.00 0.00 10 976.6
20260503190352 49 0.0 0.0 0.00 0.00 0.00 10 976.6
20260503185351 49 0.0 0.0 0.00 0.00 0.00 10 976.9
20260503184351 49 0.0 0.0 0.00 0.00 0.00 10 976.9
20260503183351 50 0.0 0.0 0.00 0.00 0.00 10 976.9
20260503182351 51 0.0 0.0 0.00 0.00 0.00 10 977.0
20260503181406 50 0.0 0.0 0.00 0.00 0.00 10 976.9
20260503180351 50 0.0 0.0 0.00 0.00 0.00 10 976.9
20260503174406 52 0.0 0.0 0.00 0.00 0.00 10 976.9
20260503173352 54 0.0 0.0 0.00 0.00 0.00 10 976.8
20260503172407 55 0.0 0.0 0.00 0.00 0.00 90 976.7
20260503171351 55 0.0 0.0 0.00 0.00 0.00 83 976.8
20260503170352 56 0.0 0.0 0.00 0.00 0.00 78 976.8
20260503150351 59 0.0 0.0 0.00 0.00 0.00 38 977.3
20260503131351 59 0.0 0.0 0.00 0.00 0.00 35 978.2
20260503130353 58 0.0 0.0 0.00 0.00 0.00 35 978.3
20260503110351 60 0.0 0.0 0.00 0.00 0.00 35 979.5
20260503090406 55 0.0 0.0 0.00 0.00 0.00 37 980.8
20260503081350 55 0.0 0.0 0.00 0.00 0.00 35 981.1
20260503080351 53 0.0 0.0 0.00 0.00 0.00 38 981.2
20260503072351 53 0.0 0.0 0.00 0.00 0.00 37 981.3
20260503071351 53 0.0 0.0 0.00 0.00 0.00 38 981.3
20260503070406 54 0.0 0.0 0.00 0.00 0.00 37 981.2
20260503054407 48 0.0 0.0 0.00 0.00 0.00 96 981.1
20260503053350 47 0.0 0.0 0.00 0.00 0.00 10 981.2
20260503052350 46 0.0 0.0 0.00 0.00 0.00 10 981.2
20260503051352 46 0.0 0.0 0.00 0.00 0.00 10 981.0
20260503050350 45 0.0 0.0 0.00 0.00 0.00 10 981.0
20260503045350 44 0.0 0.0 0.00 0.00 0.00 10 981.1
20260503044350 43 0.0 0.0 0.00 0.00 0.00 10 981.0
20260503043406 41 0.0 0.0 0.00 0.00 0.00 10 980.9
20260503042351 39 0.0 0.0 0.00 0.00 0.00 10 980.7
20260503041350 37 0.0 0.0 0.00 0.00 0.00 10 980.6
20260503040352 37 0.0 0.0 0.00 0.00 0.00 10 980.5
20260503035350 36 0.0 0.0 0.00 0.00 0.00 10 980.3
20260503034350 36 0.0 0.0 0.00 0.00 0.00 10 980.3
20260503033351 35 0.0 0.0 0.00 0.00 0.00 10 980.2
20260503032350 35 0.0 0.0 0.00 0.00 0.00 10 980.0
20260503031351 35 0.0 0.0 0.00 0.00 0.00 10 980.0
20260503030351 35 0.0 0.0 0.00 0.00 0.00 10 980.0
20260503025351 35 0.0 0.0 0.00 0.00 0.00 10 979.9
20260503024412 35 0.0 0.0 0.00 0.00 0.00 10 979.9
20260503023350 35 0.0 0.0 0.00 0.00 0.00 10 979.9
20260503022406 35 0.0 0.0 0.00 0.00 0.00 10 979.9
20260503021406 36 0.0 0.0 0.00 0.00 0.00 10 980.2
20260503020352 36 0.0 0.0 0.00 0.00 0.00 10 980.2
20260503015351 36 0.0 0.0 0.00 0.00 0.00 10 980.1
20260503014350 36 0.0 0.0 0.00 0.00 0.00 10 980.1
20260503013350 36 0.0 0.0 0.00 0.00 0.00 10 980.2
20260503012407 36 0.0 0.0 0.00 0.00 0.00 10 980.2
20260503011350 36 0.0 0.0 0.00 0.00 0.00 10 980.2
20260503010405 36 0.0 0.0 0.00 0.00 0.00 10 980.3
20260503005353 36 0.0 0.0 0.00 0.00 0.00 10 980.2
20260503004407 36 0.0 0.0 0.00 0.00 0.00 10 980.3
20260503003350 36 0.0 0.0 0.00 0.00 0.00 10 980.2
20260503002351 37 0.0 0.0 0.00 0.00 0.00 10 980.2
20260503001350 37 0.0 0.0 0.00 0.00 0.00 10 980.1
20260503000350 37 0.0 0.0 0.00 0.00 0.00 10 980.3
20260502235406 37 0.0 0.0 0.00 0.00 0.00 10 980.3
20260502234405 37 0.0 0.0 0.00 0.00 0.00 10 980.3
20260502233350 37 0.0 0.0 0.00 0.00 0.00 10 980.4
20260502232351 37 0.0 0.0 0.00 0.00 0.00 10 980.4
20260502231350 38 0.0 0.0 0.00 0.00 0.00 10 980.6